Year,Month,Day,Hour,Minute,Value (Times are PST for temperature in C)
2006,10,03,00,00,7.70
2006,10,03,00,01,7.70
2006,10,03,00,02,7.70
2006,10,03,00,03,7.80
2006,10,03,00,04,7.80
2006,10,03,00,05,7.80
2006,10,03,00,06,7.80
2006,10,03,00,07,7.80
2006,10,03,00,08,7.80
2006,10,03,00,09,7.80
2006,10,03,00,10,7.80
2006,10,03,00,11,7.70
2006,10,03,00,12,7.70
2006,10,03,00,13,7.70
2006,10,03,00,14,7.70
2006,10,03,00,15,7.70
2006,10,03,00,16,7.70
2006,10,03,00,17,7.70
2006,10,03,00,18,7.70
2006,10,03,00,19,7.70
2006,10,03,00,20,7.70
2006,10,03,00,21,7.70
2006,10,03,00,22,7.70
2006,10,03,00,23,7.70
2006,10,03,00,24,7.70
2006,10,03,00,25,7.70
2006,10,03,00,26,7.70
2006,10,03,00,27,7.70
2006,10,03,00,28,7.70
2006,10,03,00,29,7.70
2006,10,03,00,30,7.70
2006,10,03,00,31,7.70
2006,10,03,00,32,7.70
2006,10,03,00,33,7.70
2006,10,03,00,34,7.70
2006,10,03,00,35,7.70
2006,10,03,00,36,7.70
2006,10,03,00,37,7.70
2006,10,03,00,38,7.70
2006,10,03,00,39,7.70
2006,10,03,00,40,7.70
2006,10,03,00,41,7.70
2006,10,03,00,42,7.70
2006,10,03,00,43,7.70
2006,10,03,00,44,7.60
2006,10,03,00,45,7.60
2006,10,03,00,46,7.60
2006,10,03,00,47,7.60
2006,10,03,00,48,7.60
2006,10,03,00,49,7.60
2006,10,03,00,50,7.60
2006,10,03,00,51,7.60
2006,10,03,00,52,7.60
2006,10,03,00,53,7.60
2006,10,03,00,54,7.60
2006,10,03,00,55,7.60
2006,10,03,00,56,7.60
2006,10,03,00,57,7.60
2006,10,03,00,58,7.60
2006,10,03,00,59,7.60
2006,10,03,01,00,7.60
2006,10,03,01,01,7.60
2006,10,03,01,02,7.60
2006,10,03,01,03,7.60
2006,10,03,01,04,7.60
2006,10,03,01,05,7.60
2006,10,03,01,06,7.60
2006,10,03,01,07,7.60
2006,10,03,01,08,7.60
2006,10,03,01,09,7.60
2006,10,03,01,10,7.60
2006,10,03,01,11,7.60
2006,10,03,01,12,7.60
2006,10,03,01,13,7.60
2006,10,03,01,14,7.60
2006,10,03,01,15,7.50
2006,10,03,01,16,7.50
2006,10,03,01,17,7.50
2006,10,03,01,18,7.50
2006,10,03,01,19,7.50
2006,10,03,01,20,7.50
2006,10,03,01,21,7.50
2006,10,03,01,22,7.50
2006,10,03,01,23,7.50
2006,10,03,01,24,7.50
2006,10,03,01,25,7.50
2006,10,03,01,26,7.50
2006,10,03,01,27,7.50
2006,10,03,01,28,7.40
2006,10,03,01,29,7.40
2006,10,03,01,30,7.40
2006,10,03,01,31,7.40
2006,10,03,01,32,7.40
2006,10,03,01,33,7.40
2006,10,03,01,34,7.40
2006,10,03,01,35,7.30
2006,10,03,01,36,7.30
2006,10,03,01,37,7.30
2006,10,03,01,38,7.30
2006,10,03,01,39,7.30
2006,10,03,01,40,7.30
2006,10,03,01,41,7.30
2006,10,03,01,42,7.30
2006,10,03,01,43,7.30
2006,10,03,01,44,7.30
2006,10,03,01,45,7.30
2006,10,03,01,46,7.30
2006,10,03,01,47,7.30
2006,10,03,01,48,7.20
2006,10,03,01,49,7.20
2006,10,03,01,50,7.20
2006,10,03,01,51,7.20
2006,10,03,01,52,7.10
2006,10,03,01,53,7.10
2006,10,03,01,54,7.10
2006,10,03,01,55,7.10
2006,10,03,01,56,7.10
2006,10,03,01,57,7.00
2006,10,03,01,58,7.00
2006,10,03,01,59,7.00
2006,10,03,02,00,7.00
2006,10,03,02,01,7.00
2006,10,03,02,02,7.00
2006,10,03,02,03,6.90
2006,10,03,02,04,6.90
2006,10,03,02,05,6.90
2006,10,03,02,06,6.90
2006,10,03,02,07,6.90
2006,10,03,02,08,6.90
2006,10,03,02,09,6.90
2006,10,03,02,10,6.90
2006,10,03,02,11,6.80
2006,10,03,02,12,6.80
2006,10,03,02,13,6.80
2006,10,03,02,14,6.80
2006,10,03,02,15,6.80
2006,10,03,02,16,6.80
2006,10,03,02,17,6.80
2006,10,03,02,18,6.80
2006,10,03,02,19,6.80
2006,10,03,02,20,6.80
2006,10,03,02,21,6.80
2006,10,03,02,22,6.80
2006,10,03,02,23,6.80
2006,10,03,02,24,6.80
2006,10,03,02,25,6.80
2006,10,03,02,26,6.70
2006,10,03,02,27,6.70
2006,10,03,02,28,6.70
2006,10,03,02,29,6.70
2006,10,03,02,30,6.70
2006,10,03,02,31,6.70
2006,10,03,02,32,6.60
2006,10,03,02,33,6.60
2006,10,03,02,34,6.60
2006,10,03,02,35,6.60
2006,10,03,02,36,6.60
2006,10,03,02,37,6.60
2006,10,03,02,38,6.60
2006,10,03,02,39,6.60
2006,10,03,02,40,6.60
2006,10,03,02,41,6.60
2006,10,03,02,42,6.60
2006,10,03,02,43,6.60
2006,10,03,02,44,6.60
2006,10,03,02,45,6.60
2006,10,03,02,46,6.60
2006,10,03,02,47,6.60
2006,10,03,02,48,6.60
2006,10,03,02,49,6.60
2006,10,03,02,50,6.60
2006,10,03,02,51,6.60
2006,10,03,02,52,6.60
2006,10,03,02,53,6.50
2006,10,03,02,54,6.40
2006,10,03,02,55,6.40
2006,10,03,02,56,6.40
2006,10,03,02,57,6.40
2006,10,03,02,58,6.40
2006,10,03,02,59,6.40
2006,10,03,03,00,6.40
2006,10,03,03,01,6.40
2006,10,03,03,02,6.40
2006,10,03,03,03,6.30
2006,10,03,03,04,6.30
2006,10,03,03,05,6.30
2006,10,03,03,06,6.30
2006,10,03,03,07,6.30
2006,10,03,03,08,6.30
2006,10,03,03,09,6.20
2006,10,03,03,10,6.20
2006,10,03,03,11,6.20
2006,10,03,03,12,6.20
2006,10,03,03,13,6.20
2006,10,03,03,14,6.20
2006,10,03,03,15,6.20
2006,10,03,03,16,6.20
2006,10,03,03,17,6.20
2006,10,03,03,18,6.20
2006,10,03,03,19,6.20
2006,10,03,03,20,6.10
2006,10,03,03,21,6.10
2006,10,03,03,22,6.10
2006,10,03,03,23,6.10
2006,10,03,03,24,6.10
2006,10,03,03,25,6.10
2006,10,03,03,26,6.10
2006,10,03,03,27,6.00
2006,10,03,03,28,6.00
2006,10,03,03,29,6.00
2006,10,03,03,30,6.00
2006,10,03,03,31,6.00
2006,10,03,03,32,5.90
2006,10,03,03,33,5.90
2006,10,03,03,34,5.90
2006,10,03,03,35,5.90
2006,10,03,03,36,5.90
2006,10,03,03,37,5.90
2006,10,03,03,38,5.80
2006,10,03,03,39,5.80
2006,10,03,03,40,5.80
2006,10,03,03,41,5.80
2006,10,03,03,42,5.80
2006,10,03,03,43,5.80
2006,10,03,03,44,5.80
2006,10,03,03,45,5.80
2006,10,03,03,46,5.80
2006,10,03,03,47,5.80
2006,10,03,03,48,5.80
2006,10,03,03,49,5.80
2006,10,03,03,50,5.80
2006,10,03,03,51,5.80
2006,10,03,03,52,5.70
2006,10,03,03,53,5.70
2006,10,03,03,54,5.70
2006,10,03,03,55,5.70
2006,10,03,03,56,5.70
2006,10,03,03,57,5.70
2006,10,03,03,58,5.70
2006,10,03,03,59,5.70
2006,10,03,04,00,5.70
2006,10,03,04,01,5.70
2006,10,03,04,02,5.70
2006,10,03,04,03,5.70
2006,10,03,04,04,5.70
2006,10,03,04,05,5.70
2006,10,03,04,06,5.70
2006,10,03,04,07,5.70
2006,10,03,04,08,5.70
2006,10,03,04,09,5.70
2006,10,03,04,10,5.70
2006,10,03,04,11,5.70
2006,10,03,04,12,5.70
2006,10,03,04,13,5.70
2006,10,03,04,14,5.70
2006,10,03,04,15,5.70
2006,10,03,04,16,5.70
2006,10,03,04,17,5.70
2006,10,03,04,18,5.70
2006,10,03,04,19,5.70
2006,10,03,04,20,5.70
2006,10,03,04,21,5.70
2006,10,03,04,22,5.70
2006,10,03,04,23,5.70
2006,10,03,04,24,5.70
2006,10,03,04,25,5.70
2006,10,03,04,26,5.70
2006,10,03,04,27,5.70
2006,10,03,04,28,5.70
2006,10,03,04,29,5.60
2006,10,03,04,30,5.60
2006,10,03,04,31,5.60
2006,10,03,04,32,5.60
2006,10,03,04,33,5.60
2006,10,03,04,34,5.60
2006,10,03,04,35,5.60
2006,10,03,04,36,5.60
2006,10,03,04,37,5.60
2006,10,03,04,38,5.60
2006,10,03,04,39,5.60
2006,10,03,04,40,5.60
2006,10,03,04,41,5.60
2006,10,03,04,42,5.50
2006,10,03,04,43,5.50
2006,10,03,04,44,5.50
2006,10,03,04,45,5.50
2006,10,03,04,46,5.50
2006,10,03,04,47,5.50
2006,10,03,04,48,5.50
2006,10,03,04,49,5.50
2006,10,03,04,50,5.50
2006,10,03,04,51,5.50
2006,10,03,04,52,5.50
2006,10,03,04,53,5.50
2006,10,03,04,54,5.50
2006,10,03,04,55,5.50
2006,10,03,04,56,5.50
2006,10,03,04,57,5.50
2006,10,03,04,58,5.50
2006,10,03,04,59,5.50
2006,10,03,05,00,5.50
2006,10,03,05,01,5.50
2006,10,03,05,02,5.40
2006,10,03,05,03,5.40
2006,10,03,05,04,5.40
2006,10,03,05,05,5.40
2006,10,03,05,06,5.40
2006,10,03,05,07,5.30
2006,10,03,05,08,5.30
2006,10,03,05,09,5.30
2006,10,03,05,10,5.30
2006,10,03,05,11,5.30
2006,10,03,05,12,5.30
2006,10,03,05,13,5.30
2006,10,03,05,14,5.30
2006,10,03,05,15,5.30
2006,10,03,05,16,5.30
2006,10,03,05,17,5.30
2006,10,03,05,18,5.30
2006,10,03,05,19,5.30
2006,10,03,05,20,5.30
2006,10,03,05,21,5.30
2006,10,03,05,22,5.30
2006,10,03,05,23,5.30
2006,10,03,05,24,5.30
2006,10,03,05,25,5.30
2006,10,03,05,26,5.40
2006,10,03,05,27,5.40
2006,10,03,05,28,5.40
2006,10,03,05,29,5.40
2006,10,03,05,30,5.40
2006,10,03,05,31,5.40
2006,10,03,05,32,5.40
2006,10,03,05,33,5.40
2006,10,03,05,34,5.30
2006,10,03,05,35,5.30
2006,10,03,05,36,5.30
2006,10,03,05,37,5.30
2006,10,03,05,38,5.30
2006,10,03,05,39,5.30
2006,10,03,05,40,5.30
2006,10,03,05,41,5.30
2006,10,03,05,42,5.30
2006,10,03,05,43,5.30
2006,10,03,05,44,5.30
2006,10,03,05,45,5.30
2006,10,03,05,46,5.30
2006,10,03,05,47,5.30
2006,10,03,05,48,5.30
2006,10,03,05,49,5.30
2006,10,03,05,50,5.30
2006,10,03,05,51,5.20
2006,10,03,05,52,5.20
2006,10,03,05,53,5.20
2006,10,03,05,54,5.20
2006,10,03,05,55,5.20
2006,10,03,05,56,5.20
2006,10,03,05,57,5.20
2006,10,03,05,58,5.20
2006,10,03,05,59,5.20
2006,10,03,06,00,5.20
2006,10,03,06,01,5.20
2006,10,03,06,02,5.20
2006,10,03,06,03,5.20
2006,10,03,06,04,5.20
2006,10,03,06,05,5.20
2006,10,03,06,06,5.20
2006,10,03,06,07,5.20
2006,10,03,06,08,5.20
2006,10,03,06,09,5.30
2006,10,03,06,10,5.30
2006,10,03,06,11,5.30
2006,10,03,06,12,5.20
2006,10,03,06,13,5.20
2006,10,03,06,14,5.20
2006,10,03,06,15,5.20
2006,10,03,06,16,5.20
2006,10,03,06,17,5.20
2006,10,03,06,18,5.20
2006,10,03,06,19,5.20
2006,10,03,06,20,5.20
2006,10,03,06,21,5.20
2006,10,03,06,22,5.20
2006,10,03,06,23,5.20
2006,10,03,06,24,5.20
2006,10,03,06,25,5.20
2006,10,03,06,26,5.20
2006,10,03,06,27,5.20
2006,10,03,06,28,5.20
2006,10,03,06,29,5.10
2006,10,03,06,30,5.10
2006,10,03,06,31,5.10
2006,10,03,06,32,5.10
2006,10,03,06,33,5.10
2006,10,03,06,34,5.10
2006,10,03,06,35,5.10
2006,10,03,06,36,5.10
2006,10,03,06,37,5.10
2006,10,03,06,38,5.10
2006,10,03,06,39,5.10
2006,10,03,06,40,5.10
2006,10,03,06,41,5.10
2006,10,03,06,42,5.10
2006,10,03,06,43,5.10
2006,10,03,06,44,5.10
2006,10,03,06,45,5.10
2006,10,03,06,46,5.10
2006,10,03,06,47,5.10
2006,10,03,06,48,5.10
2006,10,03,06,49,5.10
2006,10,03,06,50,5.00
2006,10,03,06,51,4.90
2006,10,03,06,52,4.90
2006,10,03,06,53,4.90
2006,10,03,06,54,4.90
2006,10,03,06,55,4.90
2006,10,03,06,56,4.90
2006,10,03,06,57,4.90
2006,10,03,06,58,4.90
2006,10,03,06,59,4.90
2006,10,03,07,00,4.90
2006,10,03,07,01,4.90
2006,10,03,07,02,4.90
2006,10,03,07,03,4.90
2006,10,03,07,04,4.90
2006,10,03,07,05,4.90
2006,10,03,07,06,5.00
2006,10,03,07,07,5.10
2006,10,03,07,08,5.00
2006,10,03,07,09,4.90
2006,10,03,07,10,4.90
2006,10,03,07,11,4.90
2006,10,03,07,12,4.90
2006,10,03,07,13,4.90
2006,10,03,07,14,4.90
2006,10,03,07,15,4.90
2006,10,03,07,16,4.90
2006,10,03,07,17,4.90
2006,10,03,07,18,4.90
2006,10,03,07,19,4.90
2006,10,03,07,20,4.90
2006,10,03,07,21,4.90
2006,10,03,07,22,4.90
2006,10,03,07,23,4.90
2006,10,03,07,24,4.90
2006,10,03,07,25,4.90
2006,10,03,07,26,4.90
2006,10,03,07,27,4.90
2006,10,03,07,28,4.90
2006,10,03,07,29,4.90
2006,10,03,07,30,4.90
2006,10,03,07,31,4.90
2006,10,03,07,32,4.90
2006,10,03,07,33,4.90
2006,10,03,07,34,4.90
2006,10,03,07,35,4.90
2006,10,03,07,36,4.90
2006,10,03,07,37,4.90
2006,10,03,07,38,4.90
2006,10,03,07,39,4.90
2006,10,03,07,40,4.90
2006,10,03,07,41,4.80
2006,10,03,07,42,4.80
2006,10,03,07,43,4.80
2006,10,03,07,44,4.80
2006,10,03,07,45,4.80
2006,10,03,07,46,4.80
2006,10,03,07,47,4.80
2006,10,03,07,48,4.80
2006,10,03,07,49,4.80
2006,10,03,07,50,4.80
2006,10,03,07,51,4.80
2006,10,03,07,52,4.80
2006,10,03,07,53,4.80
2006,10,03,07,54,4.80
2006,10,03,07,55,4.80
2006,10,03,07,56,4.90
2006,10,03,07,57,4.90
2006,10,03,07,58,4.90
2006,10,03,07,59,4.90
2006,10,03,08,00,4.90
2006,10,03,08,01,4.90
2006,10,03,08,02,4.90
2006,10,03,08,03,4.90
2006,10,03,08,04,4.90
2006,10,03,08,05,4.90
2006,10,03,08,06,4.90
2006,10,03,08,07,4.90
2006,10,03,08,08,4.90
2006,10,03,08,09,4.90
2006,10,03,08,10,4.90
2006,10,03,08,11,4.90
2006,10,03,08,12,4.90
2006,10,03,08,13,4.90
2006,10,03,08,14,4.90
2006,10,03,08,15,4.90
2006,10,03,08,16,4.90
2006,10,03,08,17,4.90
2006,10,03,08,18,4.90
2006,10,03,08,19,4.90
2006,10,03,08,20,4.90
2006,10,03,08,21,4.90
2006,10,03,08,22,4.90
2006,10,03,08,23,4.90
2006,10,03,08,24,4.90
2006,10,03,08,25,4.90
2006,10,03,08,26,5.00
2006,10,03,08,27,5.10
2006,10,03,08,28,5.10
2006,10,03,08,29,5.10
2006,10,03,08,30,5.10
2006,10,03,08,31,5.10
2006,10,03,08,32,5.10
2006,10,03,08,33,5.20
2006,10,03,08,34,5.30
2006,10,03,08,35,5.30
2006,10,03,08,36,5.30
2006,10,03,08,37,5.40
2006,10,03,08,38,5.50
2006,10,03,08,39,5.50
2006,10,03,08,40,5.60
2006,10,03,08,41,5.60
2006,10,03,08,42,5.70
2006,10,03,08,43,5.70
2006,10,03,08,44,5.80
2006,10,03,08,45,5.90
2006,10,03,08,46,6.00
2006,10,03,08,47,6.10
2006,10,03,08,48,6.20
2006,10,03,08,49,6.20
2006,10,03,08,50,6.20
2006,10,03,08,51,6.30
2006,10,03,08,52,6.40
2006,10,03,08,53,6.50
2006,10,03,08,54,6.60
2006,10,03,08,55,6.70
2006,10,03,08,56,6.80
2006,10,03,08,57,6.80
2006,10,03,08,58,7.00
2006,10,03,08,59,7.00
2006,10,03,09,00,7.10
2006,10,03,09,01,7.20
2006,10,03,09,02,7.30
2006,10,03,09,03,7.40
2006,10,03,09,04,7.50
2006,10,03,09,05,7.60
2006,10,03,09,06,7.70
2006,10,03,09,07,7.80
2006,10,03,09,08,7.80
2006,10,03,09,09,7.90
2006,10,03,09,10,8.00
2006,10,03,09,11,8.20
2006,10,03,09,12,8.20
2006,10,03,09,13,8.30
2006,10,03,09,14,8.40
2006,10,03,09,15,8.50
2006,10,03,09,16,8.60
2006,10,03,09,17,8.70
2006,10,03,09,18,8.80
2006,10,03,09,19,8.90
2006,10,03,09,20,9.00
2006,10,03,09,21,9.10
2006,10,03,09,22,9.20
2006,10,03,09,23,9.30
2006,10,03,09,24,9.50
2006,10,03,09,25,9.50
2006,10,03,09,26,9.60
2006,10,03,09,27,9.70
2006,10,03,09,28,9.80
2006,10,03,09,29,9.90
2006,10,03,09,30,9.90
2006,10,03,09,31,10.00
2006,10,03,09,32,10.10
2006,10,03,09,33,10.20
2006,10,03,09,34,10.20
2006,10,03,09,35,10.30
2006,10,03,09,36,10.40
2006,10,03,09,37,10.40
2006,10,03,09,38,10.50
2006,10,03,09,39,10.60
2006,10,03,09,40,10.60
2006,10,03,09,41,10.70
2006,10,03,09,42,10.90
2006,10,03,09,43,11.00
2006,10,03,09,44,11.20
2006,10,03,09,45,11.50
2006,10,03,09,46,11.60
2006,10,03,09,47,11.80
2006,10,03,09,48,11.90
2006,10,03,09,49,12.00
2006,10,03,09,50,12.10
2006,10,03,09,51,12.20
2006,10,03,09,52,12.30
2006,10,03,09,53,12.30
2006,10,03,09,54,12.30
2006,10,03,09,55,12.40
2006,10,03,09,56,12.50
2006,10,03,09,57,12.50
2006,10,03,09,58,12.50
2006,10,03,09,59,12.50
2006,10,03,10,00,12.60
2006,10,03,10,01,12.60
2006,10,03,10,02,12.60
2006,10,03,10,03,12.60
2006,10,03,10,04,12.70
2006,10,03,10,05,12.70
2006,10,03,10,06,12.80
2006,10,03,10,07,12.80
2006,10,03,10,08,12.80
2006,10,03,10,09,12.80
2006,10,03,10,10,12.80
2006,10,03,10,11,12.80
2006,10,03,10,12,12.80
2006,10,03,10,13,12.80
2006,10,03,10,14,12.90
2006,10,03,10,15,13.00
2006,10,03,10,16,13.00
2006,10,03,10,17,13.10
2006,10,03,10,18,13.20
2006,10,03,10,19,13.30
2006,10,03,10,20,13.40
2006,10,03,10,21,13.50
2006,10,03,10,22,13.60
2006,10,03,10,23,13.70
2006,10,03,10,24,13.70
2006,10,03,10,25,13.70
2006,10,03,10,26,13.70
2006,10,03,10,27,13.70
2006,10,03,10,28,13.70
2006,10,03,10,29,13.70
2006,10,03,10,30,13.80
2006,10,03,10,31,13.90
2006,10,03,10,32,13.90
2006,10,03,10,33,13.90
2006,10,03,10,34,13.80
2006,10,03,10,35,13.90
2006,10,03,10,36,13.90
2006,10,03,10,37,13.90
2006,10,03,10,38,13.90
2006,10,03,10,39,13.90
2006,10,03,10,40,14.00
2006,10,03,10,41,14.20
2006,10,03,10,42,14.20
2006,10,03,10,43,14.40
2006,10,03,10,44,14.50
2006,10,03,10,45,14.50
2006,10,03,10,46,14.50
2006,10,03,10,47,14.50
2006,10,03,10,48,14.50
2006,10,03,10,49,14.50
2006,10,03,10,50,14.40
2006,10,03,10,51,14.40
2006,10,03,10,52,14.30
2006,10,03,10,53,14.30
2006,10,03,10,54,14.30
2006,10,03,10,55,14.30
2006,10,03,10,56,14.30
2006,10,03,10,57,14.40
2006,10,03,10,58,14.50
2006,10,03,10,59,14.60
2006,10,03,11,00,14.50
2006,10,03,11,01,14.30
2006,10,03,11,02,14.20
2006,10,03,11,03,14.00
2006,10,03,11,04,14.00
2006,10,03,11,05,14.00
2006,10,03,11,06,13.90
2006,10,03,11,07,13.90
2006,10,03,11,08,13.90
2006,10,03,11,09,14.00
2006,10,03,11,10,14.10
2006,10,03,11,11,14.10
2006,10,03,11,12,14.10
2006,10,03,11,13,14.10
2006,10,03,11,14,14.10
2006,10,03,11,15,14.10
2006,10,03,11,16,14.10
2006,10,03,11,17,14.20
2006,10,03,11,18,14.20
2006,10,03,11,19,14.20
2006,10,03,11,20,14.20
2006,10,03,11,21,14.20
2006,10,03,11,22,14.30
2006,10,03,11,23,14.40
2006,10,03,11,24,14.50
2006,10,03,11,25,14.50
2006,10,03,11,26,14.60
2006,10,03,11,27,14.60
2006,10,03,11,28,14.60
2006,10,03,11,29,14.60
2006,10,03,11,30,14.60
2006,10,03,11,31,14.60
2006,10,03,11,32,14.60
2006,10,03,11,33,14.60
2006,10,03,11,34,14.70
2006,10,03,11,35,14.80
2006,10,03,11,36,14.90
2006,10,03,11,37,15.10
2006,10,03,11,38,15.20
2006,10,03,11,39,15.30
2006,10,03,11,40,15.30
2006,10,03,11,41,15.30
2006,10,03,11,42,15.30
2006,10,03,11,43,15.30
2006,10,03,11,44,15.30
2006,10,03,11,45,15.30
2006,10,03,11,46,15.30
2006,10,03,11,47,15.30
2006,10,03,11,48,15.20
2006,10,03,11,49,15.00
2006,10,03,11,50,14.90
2006,10,03,11,51,14.80
2006,10,03,11,52,14.80
2006,10,03,11,53,14.80
2006,10,03,11,54,14.90
2006,10,03,11,55,15.00
2006,10,03,11,56,15.00
2006,10,03,11,57,15.10
2006,10,03,11,58,15.20
2006,10,03,11,59,15.30
2006,10,03,12,00,15.20
2006,10,03,12,01,15.10
2006,10,03,12,02,15.00
2006,10,03,12,03,14.80
2006,10,03,12,04,14.60
2006,10,03,12,05,14.50
2006,10,03,12,06,14.40
2006,10,03,12,07,14.30
2006,10,03,12,08,14.20
2006,10,03,12,09,14.20
2006,10,03,12,10,14.20
2006,10,03,12,11,14.10
2006,10,03,12,12,14.00
2006,10,03,12,13,14.00
2006,10,03,12,14,14.00
2006,10,03,12,15,14.00
2006,10,03,12,16,14.10
2006,10,03,12,17,14.20
2006,10,03,12,18,14.20
2006,10,03,12,19,14.20
2006,10,03,12,20,14.10
2006,10,03,12,21,14.10
2006,10,03,12,22,14.10
2006,10,03,12,23,14.10
2006,10,03,12,24,14.00
2006,10,03,12,25,14.00
2006,10,03,12,26,14.10
2006,10,03,12,27,14.10
2006,10,03,12,28,14.20
2006,10,03,12,29,14.20
2006,10,03,12,30,14.20
2006,10,03,12,31,14.20
2006,10,03,12,32,14.10
2006,10,03,12,33,14.10
2006,10,03,12,34,14.00
2006,10,03,12,35,13.90
2006,10,03,12,36,13.90
2006,10,03,12,37,14.00
2006,10,03,12,38,14.10
2006,10,03,12,39,14.20
2006,10,03,12,40,14.20
2006,10,03,12,41,14.20
2006,10,03,12,42,14.30
2006,10,03,12,43,14.40
2006,10,03,12,44,14.40
2006,10,03,12,45,14.40
2006,10,03,12,46,14.30
2006,10,03,12,47,14.30
2006,10,03,12,48,14.20
2006,10,03,12,49,14.20
2006,10,03,12,50,14.20
2006,10,03,12,51,14.30
2006,10,03,12,52,14.30
2006,10,03,12,53,14.40
2006,10,03,12,54,14.40
2006,10,03,12,55,14.50
2006,10,03,12,56,14.50
2006,10,03,12,57,14.50
2006,10,03,12,58,14.50
2006,10,03,12,59,14.60
2006,10,03,13,00,14.70
2006,10,03,13,01,14.70
2006,10,03,13,02,14.70
2006,10,03,13,03,14.70
2006,10,03,13,04,14.70
2006,10,03,13,05,14.70
2006,10,03,13,06,14.60
2006,10,03,13,07,14.60
2006,10,03,13,08,14.60
2006,10,03,13,09,14.60
2006,10,03,13,10,14.60
2006,10,03,13,11,14.70
2006,10,03,13,12,14.80
2006,10,03,13,13,14.80
2006,10,03,13,14,14.70
2006,10,03,13,15,14.60
2006,10,03,13,16,14.50
2006,10,03,13,17,14.50
2006,10,03,13,18,14.50
2006,10,03,13,19,14.40
2006,10,03,13,20,14.40
2006,10,03,13,21,14.30
2006,10,03,13,22,14.20
2006,10,03,13,23,14.20
2006,10,03,13,24,14.20
2006,10,03,13,25,14.20
2006,10,03,13,26,14.40
2006,10,03,13,27,14.50
2006,10,03,13,28,14.50
2006,10,03,13,29,14.50
2006,10,03,13,30,14.50
2006,10,03,13,31,14.50
2006,10,03,13,32,14.40
2006,10,03,13,33,14.40
2006,10,03,13,34,14.40
2006,10,03,13,35,14.40
2006,10,03,13,36,14.40
2006,10,03,13,37,14.30
2006,10,03,13,38,14.30
2006,10,03,13,39,14.30
2006,10,03,13,40,14.30
2006,10,03,13,41,14.30
2006,10,03,13,42,14.30
2006,10,03,13,43,14.30
2006,10,03,13,44,14.30
2006,10,03,13,45,14.40
2006,10,03,13,46,14.30
2006,10,03,13,47,14.30
2006,10,03,13,48,14.30
2006,10,03,13,49,14.30
2006,10,03,13,50,14.30
2006,10,03,13,51,14.30
2006,10,03,13,52,14.30
2006,10,03,13,53,14.30
2006,10,03,13,54,14.30
2006,10,03,13,55,14.20
2006,10,03,13,56,14.10
2006,10,03,13,57,14.00
2006,10,03,13,58,13.90
2006,10,03,13,59,13.90
2006,10,03,14,00,14.00
2006,10,03,14,01,14.00
2006,10,03,14,02,14.10
2006,10,03,14,03,14.10
2006,10,03,14,04,14.10
2006,10,03,14,05,14.00
2006,10,03,14,06,14.00
2006,10,03,14,07,14.10
2006,10,03,14,08,14.30
2006,10,03,14,09,14.50
2006,10,03,14,10,14.50
2006,10,03,14,11,14.60
2006,10,03,14,12,14.60
2006,10,03,14,13,14.70
2006,10,03,14,14,14.80
2006,10,03,14,15,14.80
2006,10,03,14,16,14.80
2006,10,03,14,17,14.80
2006,10,03,14,18,14.80
2006,10,03,14,19,14.80
2006,10,03,14,20,14.80
2006,10,03,14,21,14.80
2006,10,03,14,22,14.70
2006,10,03,14,23,14.80
2006,10,03,14,24,14.80
2006,10,03,14,25,14.90
2006,10,03,14,26,15.10
2006,10,03,14,27,15.30
2006,10,03,14,28,15.30
2006,10,03,14,29,15.30
2006,10,03,14,30,15.30
2006,10,03,14,31,15.30
2006,10,03,14,32,15.30
2006,10,03,14,33,15.20
2006,10,03,14,34,15.10
2006,10,03,14,35,15.10
2006,10,03,14,36,15.10
2006,10,03,14,37,15.00
2006,10,03,14,38,14.90
2006,10,03,14,39,14.80
2006,10,03,14,40,14.70
2006,10,03,14,41,14.70
2006,10,03,14,42,14.70
2006,10,03,14,43,14.80
2006,10,03,14,44,14.80
2006,10,03,14,45,14.80
2006,10,03,14,46,14.80
2006,10,03,14,47,14.90
2006,10,03,14,48,15.00
2006,10,03,14,49,15.00
2006,10,03,14,50,15.00
2006,10,03,14,51,14.90
2006,10,03,14,52,14.80
2006,10,03,14,53,14.80
2006,10,03,14,54,14.80
2006,10,03,14,55,14.80
2006,10,03,14,56,14.80
2006,10,03,14,57,14.80
2006,10,03,14,58,14.80
2006,10,03,14,59,14.80
2006,10,03,15,00,14.90
2006,10,03,15,01,14.90
2006,10,03,15,02,14.80
2006,10,03,15,03,14.70
2006,10,03,15,04,14.70
2006,10,03,15,05,14.80
2006,10,03,15,06,14.80
2006,10,03,15,07,14.90
2006,10,03,15,08,15.10
2006,10,03,15,09,15.20
2006,10,03,15,10,15.30
2006,10,03,15,11,15.40
2006,10,03,15,12,15.50
2006,10,03,15,13,15.60
2006,10,03,15,14,15.60
2006,10,03,15,15,15.60
2006,10,03,15,16,15.50
2006,10,03,15,17,15.40
2006,10,03,15,18,15.30
2006,10,03,15,19,15.10
2006,10,03,15,20,15.00
2006,10,03,15,21,15.00
2006,10,03,15,22,15.00
2006,10,03,15,23,15.00
2006,10,03,15,24,14.90
2006,10,03,15,25,14.90
2006,10,03,15,26,14.90
2006,10,03,15,27,14.90
2006,10,03,15,28,15.00
2006,10,03,15,29,15.00
2006,10,03,15,30,15.00
2006,10,03,15,31,15.00
2006,10,03,15,32,15.00
2006,10,03,15,33,14.90
2006,10,03,15,34,14.90
2006,10,03,15,35,14.80
2006,10,03,15,36,14.80
2006,10,03,15,37,14.80
2006,10,03,15,38,14.90
2006,10,03,15,39,14.90
2006,10,03,15,40,14.80
2006,10,03,15,41,14.80
2006,10,03,15,42,14.80
2006,10,03,15,43,14.70
2006,10,03,15,44,14.70
2006,10,03,15,45,14.60
2006,10,03,15,46,14.50
2006,10,03,15,47,14.60
2006,10,03,15,48,14.60
2006,10,03,15,49,14.60
2006,10,03,15,50,14.50
2006,10,03,15,51,14.50
2006,10,03,15,52,14.50
2006,10,03,15,53,14.50
2006,10,03,15,54,14.50
2006,10,03,15,55,14.50
2006,10,03,15,56,14.40
2006,10,03,15,57,14.40
2006,10,03,15,58,14.30
2006,10,03,15,59,14.30
2006,10,03,16,00,14.30
2006,10,03,16,01,14.30
2006,10,03,16,02,14.30
2006,10,03,16,03,14.20
2006,10,03,16,04,14.20
2006,10,03,16,05,14.20
2006,10,03,16,06,14.20
2006,10,03,16,07,14.20
2006,10,03,16,08,14.20
2006,10,03,16,09,14.20
2006,10,03,16,10,14.20
2006,10,03,16,11,14.20
2006,10,03,16,12,14.20
2006,10,03,16,13,14.10
2006,10,03,16,14,14.00
2006,10,03,16,15,14.00
2006,10,03,16,16,13.90
2006,10,03,16,17,13.90
2006,10,03,16,18,13.80
2006,10,03,16,19,13.80
2006,10,03,16,20,13.70
2006,10,03,16,21,13.70
2006,10,03,16,22,13.70
2006,10,03,16,23,13.70
2006,10,03,16,24,13.70
2006,10,03,16,25,13.70
2006,10,03,16,26,13.70
2006,10,03,16,27,13.70
2006,10,03,16,28,13.60
2006,10,03,16,29,13.60
2006,10,03,16,30,13.60
2006,10,03,16,31,13.50
2006,10,03,16,32,13.50
2006,10,03,16,33,13.40
2006,10,03,16,34,13.40
2006,10,03,16,35,13.40
2006,10,03,16,36,13.30
2006,10,03,16,37,13.30
2006,10,03,16,38,13.30
2006,10,03,16,39,13.20
2006,10,03,16,40,13.20
2006,10,03,16,41,13.20
2006,10,03,16,42,13.20
2006,10,03,16,43,13.20
2006,10,03,16,44,13.30
2006,10,03,16,45,13.20
2006,10,03,16,46,13.20
2006,10,03,16,47,13.20
2006,10,03,16,48,13.20
2006,10,03,16,49,13.30
2006,10,03,16,50,13.20
2006,10,03,16,51,13.20
2006,10,03,16,52,13.20
2006,10,03,16,53,13.20
2006,10,03,16,54,13.20
2006,10,03,16,55,13.20
2006,10,03,16,56,13.20
2006,10,03,16,57,13.20
2006,10,03,16,58,13.20
2006,10,03,16,59,13.30
2006,10,03,17,00,13.30
2006,10,03,17,01,13.30
2006,10,03,17,02,13.30
2006,10,03,17,03,13.30
2006,10,03,17,04,13.30
2006,10,03,17,05,13.30
2006,10,03,17,06,13.30
2006,10,03,17,07,13.30
2006,10,03,17,08,13.30
2006,10,03,17,09,13.30
2006,10,03,17,10,13.30
2006,10,03,17,11,13.30
2006,10,03,17,12,13.30
2006,10,03,17,13,13.30
2006,10,03,17,14,13.40
2006,10,03,17,15,13.40
2006,10,03,17,16,13.40
2006,10,03,17,17,13.40
2006,10,03,17,18,13.40
2006,10,03,17,19,13.40
2006,10,03,17,20,13.40
2006,10,03,17,21,13.40
2006,10,03,17,22,13.30
2006,10,03,17,23,13.30
2006,10,03,17,24,13.30
2006,10,03,17,25,13.30
2006,10,03,17,26,13.30
2006,10,03,17,27,13.30
2006,10,03,17,28,13.30
2006,10,03,17,29,13.30
2006,10,03,17,30,13.30
2006,10,03,17,31,13.30
2006,10,03,17,32,13.30
2006,10,03,17,33,13.30
2006,10,03,17,34,13.30
2006,10,03,17,35,13.30
2006,10,03,17,36,13.30
2006,10,03,17,37,13.30
2006,10,03,17,38,13.30
2006,10,03,17,39,13.30
2006,10,03,17,40,13.30
2006,10,03,17,41,13.30
2006,10,03,17,42,13.30
2006,10,03,17,43,13.30
2006,10,03,17,44,13.30